• In Russia
  • List of Countries
  • For 7 days
  • Water Temperature
  • Satellite Maps
  • Weather Map
  • Weather Widgets
  • user-avatar
    Login

    Hourly Weather Falaba

    Today, 21 September, Friday

    Time Temperature Precipitation Wind Pressure Humidity
    00:00 +22°C° 0 mm 0 mps 741 mmHg 99%
    01:00 +22°C° 0 mm 0 mps 741 mmHg 99%
    02:00 +22°C° 0 mm 0 mps 740 mmHg 99%
    03:00 +22°C° 0 mm 0 mps 740 mmHg 99%
    04:00 +22°C° 0 mm 0 mps 740 mmHg 99%
    05:00 +22°C° 0 mm 0 mps 741 mmHg 99%
    06:00 +23°C° 0 mm 0 mps 741 mmHg 96%
    07:00 +26°C° 0 mm 1 mps 741 mmHg 94%
    08:00 +26°C° 0 mm 1 mps 742 mmHg 92%
    09:00 +29°C° 0.1 mm 1 mps 741 mmHg 81%
    10:00 +31°C° 0.1 mm 1 mps 741 mmHg 70%
    11:00 +33°C° 0.1 mm 1 mps 741 mmHg 60%
    12:00 +32°C° 0.8 mm 1 mps 740 mmHg 65%
    13:00 +32°C° 0.8 mm 1 mps 740 mmHg 71%
    14:00 +31°C° 0.8 mm 1 mps 739 mmHg 76%
    15:00 +30°C° 1.3 mm 1 mps 739 mmHg 82%
    16:00 +28°C° 1.3 mm 1 mps 739 mmHg 88%
    17:00 +27°C° 1.3 mm 1 mps 739 mmHg 95%
    18:00 +26°C° 0.7 mm 1 mps 740 mmHg 96%
    19:00 +25°C° 0.7 mm 1 mps 741 mmHg 97%
    20:00 +24°C° 0.7 mm 1 mps 741 mmHg 98%
    21:00 +24°C° 0.2 mm 1 mps 741 mmHg 98%
    22:00 +24°C° 0.2 mm 1 mps 741 mmHg 98%
    23:00 +22°C° 0.2 mm 0 mps 742 mmHg 99%

    Tomorrow, 22 September, Saturday

    Time Temperature Precipitation Wind Pressure Humidity
    00:00 +22°C° 0 mm 0 mps 741 mmHg 99%
    01:00 +22°C° 0 mm 0 mps 741 mmHg 99%
    02:00 +21°C° 0 mm 0 mps 741 mmHg 99%
    03:00 +22°C° 0 mm 0 mps 741 mmHg 99%
    04:00 +22°C° 0 mm 0 mps 741 mmHg 99%
    05:00 +22°C° 0 mm 0 mps 741 mmHg 99%
    06:00 +23°C° 0 mm 0 mps 742 mmHg 96%
    07:00 +24°C° 0 mm 0 mps 742 mmHg 93%
    08:00 +25°C° 0 mm 0 mps 742 mmHg 90%
    09:00 +27°C° 0.1 mm 0 mps 742 mmHg 79%
    10:00 +30°C° 0.1 mm 0 mps 742 mmHg 67%
    11:00 +32°C° 0.1 mm 0 mps 742 mmHg 56%
    12:00 +33°C° 0.8 mm 1 mps 741 mmHg 65%
    13:00 +32°C° 0.8 mm 1 mps 740 mmHg 73%
    14:00 +31°C° 0.8 mm 1 mps 739 mmHg 82%
    15:00 +29°C° 2.6 mm 1 mps 740 mmHg 86%
    16:00 +28°C° 2.6 mm 1 mps 740 mmHg 91%
    17:00 +27°C° 2.6 mm 1 mps 740 mmHg 95%
    18:00 +26°C° 1.8 mm 1 mps 740 mmHg 95%
    19:00 +25°C° 1.8 mm 1 mps 741 mmHg 96%
    20:00 +25°C° 1.8 mm 1 mps 742 mmHg 97%
    21:00 +25°C° 0.9 mm 1 mps 742 mmHg 97%
    22:00 +24°C° 0.9 mm 1 mps 742 mmHg 97%
    23:00 +24°C° 0.9 mm 1 mps 742 mmHg 98%

    Day after tomorrow, 23 September, Sunday

    Time Temperature Precipitation Wind Pressure Humidity
    00:00 +24°C° 0 mm 1 mps 742 mmHg 98%
    01:00 +24°C° 0 mm 1 mps 741 mmHg 99%
    02:00 +22°C° 0 mm 0 mps 741 mmHg 99%
    03:00 +22°C° 0 mm 0 mps 741 mmHg 99%
    04:00 +22°C° 0 mm 0 mps 741 mmHg 99%
    05:00 +22°C° 0 mm 0 mps 741 mmHg 99%
    06:00 +23°C° 0 mm 0 mps 742 mmHg 97%
    07:00 +23°C° 0 mm 0 mps 742 mmHg 95%
    08:00 +24°C° 0 mm 0 mps 743 mmHg 93%
    09:00 +25°C° 0 mm 0 mps 743 mmHg 88%
    10:00 +26°C° 0 mm 0 mps 743 mmHg 82%
    11:00 +27°C° 0 mm 0 mps 742 mmHg 76%
    12:00 +27°C° 0.1 mm 0 mps 742 mmHg 76%
    13:00 +27°C° 0.1 mm 0 mps 741 mmHg 76%
    14:00 +29°C° 0.1 mm 1 mps 740 mmHg 76%
    15:00 +27°C° 0.2 mm 0 mps 740 mmHg 80%
    16:00 +26°C° 0.2 mm 0 mps 740 mmHg 85%
    17:00 +25°C° 0.2 mm 0 mps 740 mmHg 89%
    18:00 +25°C° 0.5 mm 0 mps 740 mmHg 91%
    19:00 +24°C° 0.5 mm 0 mps 741 mmHg 93%
    20:00 +25°C° 0.5 mm 1 mps 742 mmHg 96%
    21:00 +23°C° 0.2 mm 0 mps 742 mmHg 96%
    22:00 +22°C° 0.2 mm 0 mps 742 mmHg 97%
    23:00 +22°C° 0.2 mm 0 mps 742 mmHg 98%

    24 September, Monday

    Time Temperature Precipitation Wind Pressure Humidity
    00:00 +22°C° 0.1 mm 0 mps 741 mmHg 99%
    01:00 +22°C° 0.1 mm 0 mps 741 mmHg 99%
    02:00 +22°C° 0.1 mm 0 mps 740 mmHg 99%
    03:00 +22°C° 0 mm 0 mps 741 mmHg 99%
    04:00 +22°C° 0 mm 0 mps 741 mmHg 99%
    05:00 +22°C° 0 mm 0 mps 741 mmHg 99%
    06:00 +23°C° 0 mm 0 mps 741 mmHg 96%
    07:00 +24°C° 0 mm 0 mps 742 mmHg 93%
    08:00 +25°C° 0 mm 0 mps 743 mmHg 90%
    09:00 +26°C° 0.8 mm 0 mps 742 mmHg 88%
    10:00 +27°C° 0.8 mm 0 mps 742 mmHg 86%
    11:00 +29°C° 0.8 mm 1 mps 742 mmHg 84%
    12:00 +30°C° 1.2 mm 1 mps 741 mmHg 82%
    13:00 +30°C° 1.2 mm 1 mps 740 mmHg 80%
    14:00 +31°C° 1.2 mm 1 mps 739 mmHg 78%
    15:00 +30°C° 2.1 mm 1 mps 739 mmHg 83%
    16:00 +28°C° 2.1 mm 1 mps 739 mmHg 88%
    17:00 +25°C° 2.1 mm 0 mps 740 mmHg 93%
    18:00 +26°C° 1.7 mm 1 mps 740 mmHg 94%
    19:00 +25°C° 1.7 mm 1 mps 741 mmHg 95%
    20:00 +25°C° 1.7 mm 1 mps 741 mmHg 97%
    21:00 +25°C° 0.8 mm 1 mps 742 mmHg 97%
    22:00 +22°C° 0.8 mm 0 mps 742 mmHg 98%
    23:00 +22°C° 0.8 mm 0 mps 742 mmHg 98%

    25 September, Tuesday

    Time Temperature Precipitation Wind Pressure Humidity
    00:00 +22°C° 0.7 mm 0 mps 741 mmHg 98%
    01:00 +22°C° 0.7 mm 0 mps 741 mmHg 98%
    02:00 +22°C° 0.7 mm 0 mps 740 mmHg 99%
    03:00 +22°C° 0.1 mm 0 mps 741 mmHg 99%
    04:00 +22°C° 0.1 mm 0 mps 741 mmHg 99%
    05:00 +22°C° 0.1 mm 0 mps 741 mmHg 99%
    06:00 +23°C° 0 mm 0 mps 742 mmHg 96%
    07:00 +24°C° 0 mm 0 mps 742 mmHg 93%
    08:00 +25°C° 0 mm 0 mps 742 mmHg 91%
    09:00 +29°C° 0 mm 1 mps 742 mmHg 81%
    10:00 +30°C° 0 mm 1 mps 742 mmHg 71%
    11:00 +32°C° 0 mm 1 mps 742 mmHg 61%
    12:00 +32°C° 0.2 mm 1 mps 741 mmHg 64%
    13:00 +32°C° 0.2 mm 1 mps 740 mmHg 67%
    14:00 +32°C° 0.2 mm 1 mps 740 mmHg 70%
    15:00 +30°C° 1.5 mm 1 mps 740 mmHg 77%
    16:00 +27°C° 1.5 mm 0 mps 740 mmHg 85%
    17:00 +26°C° 1.5 mm 0 mps 740 mmHg 92%
    18:00 +25°C° 0.4 mm 0 mps 741 mmHg 93%
    19:00 +24°C° 0.4 mm 0 mps 741 mmHg 94%
    20:00 +23°C° 0.4 mm 0 mps 742 mmHg 96%
    21:00 +23°C° 0 mm 0 mps 742 mmHg 96%
    22:00 +23°C° 0 mm 0 mps 742 mmHg 97%
    23:00 +22°C° 0 mm 0 mps 742 mmHg 98%

    26 September, Wednesday

    Time Temperature Precipitation Wind Pressure Humidity
    00:00 +22°C° 0 mm 0 mps 741 mmHg 98%
    01:00 +22°C° 0 mm 0 mps 741 mmHg 98%
    02:00 +22°C° 0 mm 0 mps 741 mmHg 99%
    03:00 +22°C° 0 mm 0 mps 741 mmHg 99%
    04:00 +22°C° 0 mm 0 mps 741 mmHg 99%
    05:00 +21°C° 0 mm 0 mps 741 mmHg 99%
    06:00 +23°C° 0 mm 0 mps 742 mmHg 95%
    07:00 +24°C° 0 mm 0 mps 742 mmHg 92%
    08:00 +25°C° 0 mm 0 mps 742 mmHg 88%
    09:00 +27°C° 0 mm 0 mps 742 mmHg 79%
    10:00 +29°C° 0 mm 0 mps 741 mmHg 70%
    11:00 +33°C° 0 mm 1 mps 741 mmHg 60%
    12:00 +33°C° 1.1 mm 1 mps 740 mmHg 64%
    13:00 +31°C° 1.1 mm 0 mps 739 mmHg 67%
    14:00 +31°C° 1.1 mm 0 mps 739 mmHg 70%
    15:00 +29°C° 1.2 mm 0 mps 739 mmHg 78%
    16:00 +27°C° 1.2 mm 0 mps 739 mmHg 85%
    17:00 +28°C° 1.2 mm 1 mps 739 mmHg 92%
    18:00 +25°C° 0.5 mm 0 mps 740 mmHg 94%
    19:00 +24°C° 0.5 mm 0 mps 741 mmHg 95%
    20:00 +24°C° 0.5 mm 0 mps 741 mmHg 96%
    21:00 +23°C° 0.7 mm 0 mps 741 mmHg 96%
    22:00 +23°C° 0.7 mm 0 mps 741 mmHg 97%
    23:00 +23°C° 0.7 mm 0 mps 741 mmHg 97%
    Show more